| time (UTC) | temp F | wind direction | speed MPH | gust MPH | rain 1hr in | rain 24hr in | rain mn in | humidity % | barometer mb |
| 20260503220504 | 83 | 138 | 8.0 | 17.0 | 0.00 | 0.00 | 0.00 | 34 | 1019.8 |
| 20260503220003 | 83 | 142 | 7.0 | 17.0 | 0.00 | 0.00 | 0.00 | 33 | 1020.0 |
| 20260503215525 | 83 | 139 | 7.0 | 17.0 | 0.00 | 0.00 | 0.00 | 32 | 1019.9 |
| 20260503215004 | 83 | 143 | 7.0 | 14.0 | 0.00 | 0.00 | 0.00 | 31 | 1020.0 |
| 20260503214525 | 83 | 142 | 7.0 | 14.0 | 0.00 | 0.00 | 0.00 | 30 | 1020.0 |
| 20260503214003 | 83 | 154 | 7.0 | 14.0 | 0.00 | 0.00 | 0.00 | 32 | 1020.1 |
| 20260503213503 | 83 | 166 | 7.0 | 13.0 | 0.00 | 0.00 | 0.00 | 33 | 1020.2 |
| 20260503213004 | 83 | 155 | 7.0 | 16.0 | 0.00 | 0.00 | 0.00 | 32 | 1020.3 |
| 20260503212525 | 83 | 158 | 8.0 | 18.0 | 0.00 | 0.00 | 0.00 | 35 | 1020.4 |
| 20260503212004 | 83 | 153 | 8.0 | 18.0 | 0.00 | 0.00 | 0.00 | 35 | 1020.6 |
| 20260503211525 | 83 | 149 | 7.0 | 16.0 | 0.00 | 0.00 | 0.00 | 33 | 1020.6 |
| 20260503211003 | 83 | 163 | 6.0 | 12.0 | 0.00 | 0.00 | 0.00 | 32 | 1020.7 |
| 20260503210503 | 83 | 170 | 7.0 | 14.0 | 0.00 | 0.00 | 0.00 | 33 | 1020.7 |
| 20260503210005 | 83 | 164 | 8.0 | 16.0 | 0.00 | 0.00 | 0.00 | 31 | 1020.8 |
| 20260503205504 | 82 | 167 | 10.0 | 22.0 | 0.00 | 0.00 | 0.00 | 33 | 1021.0 |
| 20260503205003 | 83 | 174 | 11.0 | 22.0 | 0.00 | 0.00 | 0.00 | 32 | 1021.1 |
| 20260503204525 | 83 | 178 | 8.0 | 22.0 | 0.00 | 0.00 | 0.00 | 32 | 1021.0 |
| 20260503204003 | 83 | 175 | 7.0 | 16.0 | 0.00 | 0.00 | 0.00 | 31 | 1021.1 |
| 20260503203503 | 84 | 164 | 7.0 | 16.0 | 0.00 | 0.00 | 0.00 | 32 | 1021.4 |
| 20260503203004 | 83 | 154 | 8.0 | 20.0 | 0.00 | 0.00 | 0.00 | 31 | 1021.4 |
| 20260503202504 | 84 | 155 | 8.0 | 20.0 | 0.00 | 0.00 | 0.00 | 32 | 1021.7 |
| 20260503202003 | 84 | 152 | 7.0 | 14.0 | 0.00 | 0.00 | 0.00 | 37 | 1021.7 |
| 20260503201504 | 84 | 143 | 6.0 | 14.0 | 0.00 | 0.00 | 0.00 | 33 | 1021.6 |
| 20260503201004 | 83 | 146 | 7.0 | 14.0 | 0.00 | 0.00 | 0.00 | 33 | 1021.6 |
| 20260503200504 | 83 | 147 | 7.0 | 14.0 | 0.00 | 0.00 | 0.00 | 35 | 1021.7 |
| 20260503200025 | 83 | 170 | 8.0 | 19.0 | 0.00 | 0.00 | 0.00 | 32 | 1021.9 |
| 20260503195503 | 83 | 166 | 10.0 | 19.0 | 0.00 | 0.00 | 0.00 | 32 | 1022.1 |
| 20260503195003 | 83 | 150 | 7.0 | 20.0 | 0.00 | 0.00 | 0.00 | 33 | 1022.1 |
| 20260503194525 | 83 | 141 | 8.0 | 20.0 | 0.00 | 0.00 | 0.00 | 35 | 1022.1 |
| 20260503194004 | 82 | 135 | 8.0 | 16.0 | 0.00 | 0.00 | 0.00 | 34 | 1022.2 |
| 20260503193503 | 83 | 157 | 8.0 | 18.0 | 0.00 | 0.00 | 0.00 | 32 | 1022.3 |
| 20260503193004 | 82 | 164 | 10.0 | 19.0 | 0.00 | 0.00 | 0.00 | 31 | 1022.4 |
| 20260503192504 | 83 | 141 | 8.0 | 19.0 | 0.00 | 0.00 | 0.00 | 34 | 1022.4 |
| 20260503192003 | 83 | 140 | 8.0 | 18.0 | 0.00 | 0.00 | 0.00 | 35 | 1022.5 |
| 20260503191503 | 82 | 166 | 8.0 | 18.0 | 0.00 | 0.00 | 0.00 | 36 | 1022.4 |
| 20260503191004 | 82 | 174 | 10.0 | 19.0 | 0.00 | 0.00 | 0.00 | 35 | 1022.5 |
| 20260503190503 | 82 | 168 | 10.0 | 19.0 | 0.00 | 0.00 | 0.00 | 37 | 1022.6 |
| 20260503190004 | 82 | 172 | 7.0 | 17.0 | 0.00 | 0.00 | 0.00 | 35 | 1022.6 |
| 20260503185504 | 82 | 171 | 8.0 | 18.0 | 0.00 | 0.00 | 0.00 | 36 | 1022.7 |
| 20260503185003 | 82 | 156 | 8.0 | 19.0 | 0.00 | 0.00 | 0.00 | 35 | 1022.9 |
| 20260503184503 | 82 | 152 | 7.0 | 19.0 | 0.00 | 0.00 | 0.00 | 35 | 1023.1 |
| 20260503184004 | 82 | 150 | 7.0 | 14.0 | 0.00 | 0.00 | 0.00 | 38 | 1023.1 |
| 20260503183503 | 82 | 156 | 8.0 | 16.0 | 0.00 | 0.00 | 0.00 | 34 | 1023.3 |
| 20260503183004 | 82 | 168 | 7.0 | 16.0 | 0.00 | 0.00 | 0.00 | 35 | 1023.2 |
| 20260503182503 | 82 | 177 | 7.0 | 17.0 | 0.00 | 0.00 | 0.00 | 37 | 1023.3 |
| 20260503182004 | 82 | 174 | 8.0 | 19.0 | 0.00 | 0.00 | 0.00 | 35 | 1023.5 |
| 20260503181524 | 82 | 155 | 8.0 | 19.0 | 0.00 | 0.00 | 0.00 | 37 | 1023.6 |
| 20260503181004 | 82 | 151 | 7.0 | 16.0 | 0.00 | 0.00 | 0.00 | 36 | 1023.6 |
| 20260503180524 | 81 | 146 | 7.0 | 16.0 | 0.00 | 0.00 | 0.00 | 37 | 1023.7 |
| 20260503180004 | 81 | 153 | 6.0 | 16.0 | 0.00 | 0.00 | 0.00 | 37 | 1023.8 |
| 20260503175503 | 81 | 160 | 6.0 | 18.0 | 0.00 | 0.00 | 0.00 | 39 | 1023.8 |
| 20260503175024 | 80 | 161 | 8.0 | 18.0 | 0.00 | 0.00 | 0.00 | 37 | 1023.9 |
| 20260503174503 | 80 | 173 | 8.0 | 17.0 | 0.00 | 0.00 | 0.00 | 36 | 1023.9 |
| 20260503174003 | 80 | 166 | 7.0 | 17.0 | 0.00 | 0.00 | 0.00 | 36 | 1024.0 |
| 20260503173503 | 80 | 164 | 8.0 | 17.0 | 0.00 | 0.00 | 0.00 | 36 | 1024.3 |
| 20260503173003 | 80 | 167 | 8.0 | 16.0 | 0.00 | 0.00 | 0.00 | 36 | 1024.3 |
| 20260503172504 | 80 | 168 | 8.0 | 16.0 | 0.00 | 0.00 | 0.00 | 37 | 1024.4 |
| 20260503172004 | 80 | 156 | 8.0 | 16.0 | 0.00 | 0.00 | 0.00 | 36 | 1024.6 |
| 20260503171503 | 79 | 142 | 7.0 | 16.0 | 0.00 | 0.00 | 0.00 | 38 | 1024.6 |
| 20260503171003 | 79 | 163 | 8.0 | 17.0 | 0.00 | 0.00 | 0.00 | 39 | 1024.6 |
| 20260503170503 | 79 | 158 | 7.0 | 17.0 | 0.00 | 0.00 | 0.00 | 41 | 1024.6 |
| 20260503151003 | 72 | 201 | 5.0 | 11.0 | 0.00 | 0.00 | 0.00 | 57 | 1025.2 |
| 20260503150503 | 72 | 206 | 5.0 | 12.0 | 0.00 | 0.00 | 0.00 | 55 | 1025.2 |
| 20260503131025 | 50 | 25 | 1.0 | 2.0 | 0.00 | 0.00 | 0.00 | 94 | 1024.6 |
| 20260503130504 | 50 | 25 | 0.0 | 2.0 | 0.00 | 0.00 | 0.00 | 93 | 1024.5 |
| 20260503110504 | 47 | 25 | 0.0 | 1.0 | 0.00 | 0.00 | 0.00 | 90 | 1023.8 |
| 20260503090504 | 49 | 0 | 0.0 | 0.0 | 0.00 | 0.00 | 0.00 | 89 | 1023.2 |
| 20260503081524 | 50 | 0 | 0.0 | 0.0 | 0.00 | 0.00 | 0.00 | 88 | 1023.3 |
| 20260503081025 | 50 | 0 | 0.0 | 0.0 | 0.00 | 0.00 | 0.00 | 88 | 1023.2 |
| 20260503080504 | 50 | 0 | 0.0 | 0.0 | 0.00 | 0.00 | 0.00 | 88 | 1023.2 |
| 20260503072503 | 50 | 25 | 1.0 | 1.0 | 0.00 | 0.00 | 0.00 | 87 | 1023.7 |
| 20260503072024 | 51 | 25 | 0.0 | 1.0 | 0.00 | 0.00 | 0.00 | 87 | 1023.6 |
| 20260503071504 | 51 | 0 | 0.0 | 0.0 | 0.00 | 0.00 | 0.00 | 87 | 1023.7 |
| 20260503071024 | 51 | 0 | 0.0 | 0.0 | 0.00 | 0.00 | 0.00 | 87 | 1023.7 |
| 20260503070503 | 51 | 0 | 0.0 | 0.0 | 0.00 | 0.00 | 0.00 | 87 | 1023.6 |
| 20260503055025 | 52 | 25 | 1.0 | 2.0 | 0.00 | 0.00 | 0.00 | 84 | 1023.7 |
| 20260503054503 | 52 | 25 | 0.0 | 2.0 | 0.00 | 0.00 | 0.00 | 84 | 1023.8 |
| 20260503054003 | 53 | 0 | 0.0 | 0.0 | 0.00 | 0.00 | 0.00 | 84 | 1023.8 |
| 20260503053503 | 53 | 0 | 0.0 | 0.0 | 0.00 | 0.00 | 0.00 | 84 | 1023.8 |
| 20260503053003 | 53 | 25 | 0.0 | 1.0 | 0.00 | 0.00 | 0.00 | 84 | 1023.7 |
| 20260503052503 | 53 | 25 | 0.0 | 1.0 | 0.00 | 0.00 | 0.00 | 84 | 1023.7 |
| 20260503052003 | 53 | 25 | 0.0 | 1.0 | 0.00 | 0.00 | 0.00 | 84 | 1023.7 |
| 20260503051503 | 53 | 25 | 0.0 | 1.0 | 0.00 | 0.00 | 0.00 | 83 | 1023.8 |
| 20260503051003 | 54 | 25 | 0.0 | 1.0 | 0.00 | 0.00 | 0.00 | 83 | 1023.8 |
| 20260503050503 | 54 | 25 | 0.0 | 1.0 | 0.00 | 0.00 | 0.00 | 83 | 1023.8 |
| 20260503050003 | 54 | 25 | 0.0 | 1.0 | 0.00 | 0.00 | 0.00 | 83 | 1023.9 |
| 20260503045503 | 54 | 25 | 0.0 | 1.0 | 0.00 | 0.00 | 0.00 | 83 | 1023.8 |
| 20260503045003 | 54 | 25 | 0.0 | 1.0 | 0.00 | 0.00 | 0.00 | 83 | 1023.8 |
| 20260503044504 | 54 | 25 | 0.0 | 1.0 | 0.00 | 0.00 | 0.00 | 83 | 1023.8 |
| 20260503044003 | 54 | 25 | 0.0 | 1.0 | 0.00 | 0.00 | 0.00 | 82 | 1023.8 |
| 20260503043503 | 54 | 25 | 0.0 | 1.0 | 0.00 | 0.00 | 0.00 | 82 | 1023.8 |
| 20260503043004 | 55 | 25 | 0.0 | 2.0 | 0.00 | 0.00 | 0.00 | 82 | 1023.8 |
| 20260503042503 | 55 | 25 | 0.0 | 2.0 | 0.00 | 0.00 | 0.00 | 81 | 1023.8 |
| 20260503042003 | 55 | 25 | 0.0 | 2.0 | 0.00 | 0.00 | 0.00 | 81 | 1023.8 |
| 20260503041524 | 55 | 25 | 0.0 | 1.0 | 0.00 | 0.00 | 0.00 | 81 | 1023.7 |
| 20260503041003 | 55 | 25 | 0.0 | 1.0 | 0.00 | 0.00 | 0.00 | 81 | 1023.5 |
| 20260503040524 | 56 | 25 | 0.0 | 1.0 | 0.00 | 0.00 | 0.00 | 80 | 1023.5 |
| 20260503040003 | 56 | 25 | 0.0 | 1.0 | 0.00 | 0.00 | 0.00 | 80 | 1023.5 |
| 20260503035503 | 56 | 25 | 1.0 | 1.0 | 0.00 | 0.00 | 0.00 | 79 | 1023.5 |
| 20260503035003 | 56 | 25 | 1.0 | 2.0 | 0.00 | 0.00 | 0.00 | 79 | 1023.5 |
| 20260503034503 | 56 | 25 | 1.0 | 2.0 | 0.00 | 0.00 | 0.00 | 78 | 1023.5 |
| 20260503034003 | 57 | 25 | 0.0 | 1.0 | 0.00 | 0.00 | 0.00 | 78 | 1023.4 |
| 20260503033524 | 57 | 25 | 0.0 | 1.0 | 0.00 | 0.00 | 0.00 | 77 | 1023.4 |
| 20260503033003 | 57 | 25 | 0.0 | 1.0 | 0.00 | 0.00 | 0.00 | 77 | 1023.2 |
| 20260503032503 | 57 | 25 | 1.0 | 2.0 | 0.00 | 0.00 | 0.00 | 77 | 1023.2 |
| 20260503032024 | 58 | 25 | 1.0 | 2.0 | 0.00 | 0.00 | 0.00 | 76 | 1023.2 |
| 20260503031503 | 58 | 25 | 0.0 | 1.0 | 0.00 | 0.00 | 0.00 | 76 | 1023.2 |
| 20260503031024 | 58 | 0 | 0.0 | 0.0 | 0.00 | 0.00 | 0.00 | 75 | 1023.1 |
| 20260503030503 | 59 | 0 | 0.0 | 0.0 | 0.00 | 0.00 | 0.00 | 75 | 1023.0 |
| 20260503030024 | 59 | 0 | 0.0 | 0.0 | 0.00 | 0.00 | 0.00 | 75 | 1023.0 |
| 20260503025524 | 59 | 25 | 0.0 | 1.0 | 0.00 | 0.00 | 0.00 | 74 | 1023.0 |
| 20260503025024 | 60 | 25 | 0.0 | 1.0 | 0.00 | 0.00 | 0.00 | 73 | 1022.9 |
| 20260503024503 | 60 | 25 | 1.0 | 2.0 | 0.00 | 0.00 | 0.00 | 73 | 1023.0 |
| 20260503024003 | 60 | 25 | 1.0 | 2.0 | 0.00 | 0.00 | 0.00 | 72 | 1022.9 |
| 20260503023524 | 61 | 25 | 0.0 | 1.0 | 0.00 | 0.00 | 0.00 | 72 | 1022.7 |
| 20260503023003 | 61 | 25 | 0.0 | 1.0 | 0.00 | 0.00 | 0.00 | 72 | 1022.6 |
| 20260503022503 | 62 | 25 | 0.0 | 1.0 | 0.00 | 0.00 | 0.00 | 71 | 1022.5 |
| 20260503022003 | 62 | 25 | 0.0 | 1.0 | 0.00 | 0.00 | 0.00 | 70 | 1022.4 |
| 20260503021503 | 63 | 0 | 0.0 | 0.0 | 0.00 | 0.00 | 0.00 | 69 | 1022.3 |
| 20260503021003 | 64 | 25 | 0.0 | 1.0 | 0.00 | 0.00 | 0.00 | 67 | 1022.2 |
| 20260503020503 | 64 | 25 | 0.0 | 1.0 | 0.00 | 0.00 | 0.00 | 67 | 1022.2 |
| 20260503020003 | 64 | 25 | 0.0 | 2.0 | 0.00 | 0.00 | 0.00 | 66 | 1022.2 |
| 20260503015503 | 65 | 25 | 0.0 | 2.0 | 0.00 | 0.00 | 0.00 | 65 | 1022.1 |
| 20260503015003 | 66 | 25 | 0.0 | 1.0 | 0.00 | 0.00 | 0.00 | 63 | 1022.2 |
| 20260503014503 | 66 | 25 | 0.0 | 1.0 | 0.00 | 0.00 | 0.00 | 62 | 1022.1 |
| 20260503014024 | 67 | 25 | 0.0 | 1.0 | 0.00 | 0.00 | 0.00 | 61 | 1022.1 |
| 20260503013503 | 68 | 25 | 0.0 | 1.0 | 0.00 | 0.00 | 0.00 | 60 | 1022.1 |
| 20260503013004 | 68 | 25 | 0.0 | 1.0 | 0.00 | 0.00 | 0.00 | 59 | 1022.1 |
| 20260503012504 | 69 | 25 | 0.0 | 2.0 | 0.00 | 0.00 | 0.00 | 58 | 1022.1 |
| 20260503012004 | 69 | 25 | 1.0 | 2.0 | 0.00 | 0.00 | 0.00 | 58 | 1022.0 |
| 20260503011504 | 70 | 25 | 1.0 | 4.0 | 0.00 | 0.00 | 0.00 | 57 | 1021.8 |
| 20260503011004 | 70 | 25 | 1.0 | 4.0 | 0.00 | 0.00 | 0.00 | 56 | 1021.9 |
| 20260503010504 | 71 | 25 | 0.0 | 4.0 | 0.00 | 0.00 | 0.00 | 55 | 1021.9 |
| 20260503010004 | 72 | 25 | 0.0 | 1.0 | 0.00 | 0.00 | 0.00 | 53 | 1021.8 |
| 20260503005504 | 72 | 25 | 0.0 | 2.0 | 0.00 | 0.00 | 0.00 | 52 | 1021.9 |
| 20260503005004 | 73 | 25 | 0.0 | 4.0 | 0.00 | 0.00 | 0.00 | 51 | 1021.8 |
| 20260503004525 | 73 | 25 | 1.0 | 4.0 | 0.00 | 0.00 | 0.00 | 50 | 1021.8 |
| 20260503004004 | 73 | 25 | 1.0 | 4.0 | 0.00 | 0.00 | 0.00 | 47 | 1021.8 |
| 20260503003525 | 74 | 25 | 1.0 | 4.0 | 0.00 | 0.00 | 0.00 | 46 | 1021.7 |
| 20260503003004 | 74 | 26 | 2.0 | 5.0 | 0.00 | 0.00 | 0.00 | 46 | 1021.6 |
| 20260503002504 | 74 | 26 | 2.0 | 5.0 | 0.00 | 0.00 | 0.00 | 44 | 1021.7 |
| 20260503002004 | 74 | 28 | 4.0 | 7.0 | 0.00 | 0.00 | 0.00 | 43 | 1021.7 |
| 20260503001503 | 74 | 34 | 4.0 | 7.0 | 0.00 | 0.00 | 0.00 | 42 | 1021.7 |
| 20260503001003 | 74 | 45 | 4.0 | 8.0 | 0.00 | 0.00 | 0.00 | 42 | 1021.7 |
| 20260503000525 | 75 | 61 | 2.0 | 8.0 | 0.00 | 0.00 | 0.00 | 41 | 1021.6 |
| 20260503000025 | 75 | 23 | 2.0 | 7.0 | 0.00 | 0.01 | 0.00 | 43 | 1021.7 |
| 20260502235504 | 75 | 355 | 4.0 | 8.0 | 0.00 | 0.01 | 0.00 | 41 | 1021.7 |
| 20260502235003 | 75 | 3 | 4.0 | 10.0 | 0.00 | 0.01 | 0.00 | 41 | 1021.7 |
| 20260502234504 | 75 | 354 | 4.0 | 10.0 | 0.00 | 0.01 | 0.00 | 41 | 1021.7 |
| 20260502234004 | 76 | 349 | 4.0 | 8.0 | 0.00 | 0.01 | 0.00 | 40 | 1021.6 |
| 20260502233504 | 76 | 338 | 4.0 | 7.0 | 0.00 | 0.01 | 0.00 | 41 | 1021.7 |
| 20260502233004 | 76 | 17 | 4.0 | 10.0 | 0.00 | 0.01 | 0.00 | 38 | 1021.7 |
| 20260502232504 | 76 | 53 | 4.0 | 10.0 | 0.00 | 0.01 | 0.00 | 40 | 1021.5 |
| 20260502232003 | 77 | 30 | 5.0 | 11.0 | 0.00 | 0.01 | 0.00 | 40 | 1021.6 |
| 20260502231525 | 77 | 18 | 5.0 | 11.0 | 0.00 | 0.01 | 0.00 | 39 | 1021.6 |
| 20260502231004 | 77 | 4 | 5.0 | 10.0 | 0.00 | 0.01 | 0.00 | 39 | 1021.6 |
| 20260502230504 | 77 | 8 | 6.0 | 11.0 | 0.00 | 0.01 | 0.00 | 39 | 1021.6 |
| 20260502230004 | 77 | 27 | 4.0 | 11.0 | 0.00 | 0.01 | 0.00 | 38 | 1021.5 |
| 20260502225504 | 78 | 63 | 5.0 | 12.0 | 0.00 | 0.01 | 0.00 | 39 | 1021.5 |
| 20260502225004 | 78 | 47 | 6.0 | 12.0 | 0.00 | 0.01 | 0.00 | 39 | 1021.5 |
| 20260502224504 | 78 | 30 | 5.0 | 12.0 | 0.00 | 0.01 | 0.00 | 37 | 1021.5 |
| 20260502224003 | 78 | 32 | 5.0 | 11.0 | 0.00 | 0.01 | 0.00 | 38 | 1021.5 |
| 20260502223504 | 79 | 36 | 5.0 | 10.0 | 0.00 | 0.01 | 0.00 | 39 | 1021.5 |
| 20260502223004 | 79 | 32 | 5.0 | 11.0 | 0.00 | 0.01 | 0.00 | 37 | 1021.6 |
| 20260502222504 | 79 | 24 | 6.0 | 13.0 | 0.00 | 0.02 | 0.00 | 38 | 1021.6 |
| 20260502222004 | 79 | 13 | 7.0 | 16.0 | 0.00 | 0.02 | 0.00 | 37 | 1021.7 |
| 20260502221504 | 79 | 11 | 7.0 | 18.0 | 0.00 | 0.03 | 0.00 | 37 | 1021.7 |
| 20260502221004 | 80 | 30 | 6.0 | 18.0 | 0.00 | 0.03 | 0.00 | 36 | 1021.6 |